Home   Weather   Wolfenbüttel   Past weeks

Flag for Germany Past Weather in Wolfenbüttel, Lower Saxony, Germany — Yesterday and Last 2 Weeks

Now
43 °F

Clear.


Feels Like: 36 °F
Forecast: 39 / 48 °F
Wind: 14 mph from Southwest

Location: Braunschweig Wolfsburg

Current Time: Dec 8, 2016 at 11:22:41 pm

Latest Report: Dec 8, 2016 at 9:50 pm


Visibility: 10 mi

Pressure: 30.27 "Hg

Humidity: 61%

Dew Point: 30 °F

Location of WolfenbüttelLocation

Past Weather in Wolfenbüttel — Graph

°F

Wolfenbüttel Temperature Yesterday

Maximum temperature yesterday: 43 °F (at 9:20 pm)
Minimum temperature yesterday: 25 °F (at 6:50 am)
Average temperature yesterday: 36 °F

High & Low Weather Summary for the Past Weeks

 TemperatureHumidityPressure
High48 °F (Dec 8, 1:50 pm)100% (Nov 23, 10:20 pm)30.57 "Hg (Nov 23, 10:20 pm)
Low19 °F (Nov 29, 7:20 am)52% (Dec 5, 1:50 pm)29.95 "Hg (Dec 1, 9:50 pm)
Average36 °F82%30.29 "Hg
* Reported Nov 23 10:20 pm — Dec 8 9:50 pm, Wolfenbüttel, Weather by CustomWeather, © 2016

Note: Actual official high and low records may vary slightly from our data, if they occured in-between our weather recording intervals... More about our weather records

Advertising

Wolfenbüttel Weather History for the Previous 24 Hours

Scroll right to see more
 ConditionsComfort  
Time TempWeatherWind HumidityBarometerVisibility
9:50 pm
Thu, Dec 8
43 °FClear.14 mph61%30.27 "Hg10 mi
9:20 pm43 °FClear.12 mph61%30.27 "Hg10 mi
8:50 pm43 °FClear.8 mph61%30.27 "Hg10 mi
8:20 pm43 °FClear.14 mph61%30.27 "Hg10 mi
7:50 pm45 °FClear.13 mph57%30.27 "Hg10 mi
7:20 pm45 °FPassing clouds.10 mph57%30.27 "HgN/A
6:50 pm45 °FClear.13 mph57%30.27 "Hg10 mi
6:20 pm45 °FClear.9 mph57%30.27 "Hg10 mi
5:50 pm45 °FClear.9 mph57%30.27 "Hg10 mi
5:20 pm45 °FClear.14 mph61%30.27 "Hg10 mi
4:50 pm45 °FClear.12 mph61%30.27 "Hg10 mi
4:20 pm45 °FClear.10 mph61%30.27 "Hg10 mi
3:50 pm46 °FSunny.9 mph57%30.27 "Hg10 mi
3:20 pm46 °FSunny.12 mph62%30.27 "Hg10 mi
2:50 pm48 °FSunny.13 mph58%30.27 "Hg10 mi
2:20 pm48 °FSunny.12 mph58%30.27 "Hg10 mi
1:50 pm48 °FSunny.9 mph58%30.27 "Hg10 mi
1:20 pm46 °FSunny.8 mph62%30.30 "Hg10 mi
12:50 pm46 °FSunny.9 mph62%30.30 "Hg10 mi
12:20 pm46 °FSunny.9 mph62%30.30 "Hg10 mi
11:50 am46 °FSunny.8 mph62%30.30 "Hg10 mi
11:20 am45 °FSunny.9 mph66%30.30 "Hg10 mi
10:50 am45 °FSunny.13 mph66%30.30 "Hg10 mi
10:20 am43 °FSunny.14 mph71%30.30 "Hg10 mi
9:50 am43 °FSunny.13 mph71%30.30 "Hg10 mi
9:20 am43 °FSunny.13 mph71%30.33 "Hg10 mi
8:50 am43 °FSunny.10 mph71%30.33 "Hg10 mi
8:20 am41 °FSunny.12 mph76%30.33 "Hg10 mi
7:50 am41 °FClear.12 mph70%30.33 "Hg10 mi
7:20 am41 °FClear.12 mph70%30.33 "Hg10 mi
6:50 am41 °FClear.13 mph76%30.33 "Hg10 mi
5:50 am41 °FClear.13 mph70%30.33 "Hg10 mi
Weather by CustomWeather, © 2016

See weather overviewHow to use our weather pages